| time (UTC) | temp F | wind direction | speed knots | gust knots | rain 1hr in | rain 24hr in | rain mn in | humidity % | barometer mb |
| 20260504231424 | 57 | 270 | 0.0 | 0.0 | 0.00 | 0.02 | 0.02 | 59 | 1006.7 |
| 20260504230524 | 57 | 225 | 0.0 | 0.0 | 0.00 | 0.02 | 0.02 | 58 | 1006.6 |
| 20260504225623 | 58 | 202 | 0.0 | 0.0 | 0.00 | 0.02 | 0.02 | 57 | 1006.5 |
| 20260504223623 | 59 | 292 | 1.7 | 2.6 | 0.00 | 0.02 | 0.02 | 56 | 1006.2 |
| 20260504221625 | 58 | 315 | 0.9 | 3.5 | 0.00 | 0.02 | 0.02 | 56 | 1006.1 |
| 20260504220625 | 59 | 302 | 2.6 | 4.3 | 0.00 | 0.02 | 0.02 | 56 | 1006.2 |
| 20260504215624 | 60 | 318 | 1.7 | 3.5 | 0.00 | 0.02 | 0.02 | 56 | 1005.9 |
| 20260504215524 | 60 | 311 | 1.7 | 3.5 | 0.00 | 0.02 | 0.02 | 56 | 1005.9 |
| 20260504214524 | 60 | 315 | 2.6 | 4.3 | 0.00 | 0.02 | 0.02 | 56 | 1005.8 |
| 20260504214424 | 60 | 307 | 2.6 | 4.3 | 0.00 | 0.02 | 0.02 | 57 | 1005.8 |
| 20260504213427 | 59 | 315 | 0.9 | 1.7 | 0.00 | 0.02 | 0.02 | 57 | 1005.8 |
| 20260504212426 | 59 | 307 | 2.6 | 6.1 | 0.00 | 0.02 | 0.02 | 58 | 1005.9 |
| 20260504211425 | 59 | 315 | 0.9 | 1.7 | 0.00 | 0.02 | 0.02 | 58 | 1005.9 |
| 20260504205524 | 59 | 275 | 0.9 | 1.7 | 0.00 | 0.03 | 0.02 | 57 | 1005.7 |
| 20260504204523 | 59 | 358 | 0.0 | 0.9 | 0.00 | 0.03 | 0.02 | 58 | 1005.7 |
| 20260504203524 | 59 | 325 | 1.7 | 3.5 | 0.00 | 0.03 | 0.02 | 58 | 1005.9 |
| 20260504202526 | 59 | 287 | 1.7 | 3.5 | 0.00 | 0.03 | 0.02 | 57 | 1005.7 |
| 20260504201525 | 58 | 307 | 1.7 | 3.5 | 0.00 | 0.03 | 0.02 | 56 | 1005.8 |
| 20260504200525 | 56 | 332 | 1.7 | 2.6 | 0.00 | 0.03 | 0.02 | 55 | 1005.7 |
| 20260504195525 | 55 | 302 | 1.7 | 2.6 | 0.00 | 0.03 | 0.02 | 54 | 1005.7 |
| 20260504194525 | 55 | 276 | 0.9 | 1.7 | 0.00 | 0.03 | 0.02 | 52 | 1005.6 |
| 20260504193623 | 55 | 271 | 0.9 | 2.6 | 0.00 | 0.03 | 0.02 | 51 | 1005.8 |
| 20260504191625 | 52 | 273 | 0.0 | 1.7 | 0.02 | 0.03 | 0.02 | 45 | 1006.0 |
| 20260504190723 | 51 | 229 | 2.6 | 5.2 | 0.02 | 0.03 | 0.02 | 43 | 1005.8 |
| 20260504185725 | 50 | 233 | 1.7 | 4.3 | 0.02 | 0.04 | 0.02 | 44 | 1005.9 |
| 20260504184726 | 50 | 205 | 1.7 | 3.5 | 0.02 | 0.04 | 0.02 | 45 | 1006.1 |
| 20260504183725 | 50 | 240 | 1.7 | 3.5 | 0.02 | 0.05 | 0.02 | 48 | 1006.3 |
| 20260504182823 | 51 | 222 | 1.7 | 4.3 | 0.01 | 0.04 | 0.01 | 51 | 1006.6 |
| 20260504181923 | 52 | 252 | 1.7 | 5.2 | 0.01 | 0.04 | 0.00 | 55 | 1006.6 |
| 20260504175923 | 55 | 241 | 1.7 | 3.5 | 0.00 | 0.04 | 0.00 | 59 | 1006.4 |
| 20260504173926 | 55 | 220 | 3.5 | 7.0 | 0.00 | 0.05 | 0.00 | 60 | 1006.1 |
| 20260504172924 | 55 | 228 | 2.6 | 7.0 | 0.00 | 0.06 | 0.00 | 59 | 1006.1 |
| 20260504172022 | 55 | 250 | 1.7 | 3.5 | 0.00 | 0.07 | 0.00 | 58 | 1006.0 |
| 20260504171024 | 56 | 249 | 1.7 | 3.5 | 0.00 | 0.08 | 0.00 | 56 | 1005.8 |
| 20260504170123 | 56 | 207 | 2.6 | 6.1 | 0.00 | 0.09 | 0.00 | 56 | 1005.7 |
| 20260504141026 | 56 | 332 | 0.9 | 2.6 | 0.00 | 0.33 | 0.00 | 52 | 1007.2 |
| 20260504130123 | 51 | 249 | 0.9 | 1.7 | 0.00 | 0.42 | 0.00 | 56 | 1007.8 |
| 20260504120223 | 45 | 337 | 0.0 | 0.0 | 0.00 | 0.49 | 0.00 | 62 | 1008.0 |
| 20260504110326 | 39 | 321 | 0.9 | 2.6 | 0.00 | 0.57 | 0.00 | 63 | 1007.7 |
| 20260504100323 | 35 | 292 | 0.9 | 1.7 | 0.00 | 0.67 | 0.00 | 56 | 1006.6 |
| 20260504081322 | 36 | 315 | 0.9 | 2.6 | 0.00 | 0.75 | 0.00 | 64 | 1006.0 |
| 20260504080324 | 36 | 292 | 0.9 | 2.6 | 0.00 | 0.77 | 0.00 | 63 | 1006.0 |
| 20260504045821 | 39 | 324 | 2.6 | 4.3 | 0.00 | 0.87 | 0.00 | 65 | 1004.8 |
| 20260504044823 | 39 | 320 | 1.7 | 3.5 | 0.00 | 0.87 | 0.00 | 65 | 1004.8 |
| 20260504043823 | 39 | 310 | 2.6 | 3.5 | 0.00 | 0.87 | 0.00 | 65 | 1004.9 |
| 20260504042823 | 39 | 329 | 2.6 | 4.3 | 0.00 | 0.87 | 0.00 | 65 | 1004.7 |
| 20260504041824 | 39 | 328 | 2.6 | 4.3 | 0.00 | 0.87 | 0.00 | 65 | 1004.8 |
| 20260504041724 | 39 | 305 | 2.6 | 5.2 | 0.00 | 0.87 | 0.00 | 65 | 1004.8 |
| 20260504040724 | 39 | 331 | 3.5 | 4.3 | 0.00 | 0.87 | 0.00 | 65 | 1004.7 |
| 20260504035742 | 39 | 318 | 2.6 | 4.3 | 0.00 | 0.87 | 0.87 | 64 | 1004.7 |
| 20260504034743 | 39 | 319 | 2.6 | 3.5 | 0.00 | 0.87 | 0.87 | 64 | 1004.6 |
| 20260504032744 | 40 | 331 | 3.5 | 5.2 | 0.00 | 0.87 | 0.87 | 64 | 1004.4 |
| 20260504031843 | 40 | 327 | 4.3 | 7.8 | 0.00 | 0.87 | 0.87 | 64 | 1004.3 |
| 20260504030843 | 40 | 322 | 4.3 | 6.1 | 0.00 | 0.87 | 0.87 | 64 | 1004.1 |
| 20260504025842 | 40 | 327 | 4.3 | 7.0 | 0.00 | 0.87 | 0.87 | 64 | 1004.1 |
| 20260504023842 | 40 | 325 | 3.5 | 6.1 | 0.00 | 0.87 | 0.87 | 64 | 1003.9 |
| 20260504022942 | 40 | 321 | 4.3 | 7.0 | 0.00 | 0.87 | 0.87 | 64 | 1003.9 |
| 20260504021944 | 40 | 323 | 2.6 | 4.3 | 0.00 | 0.87 | 0.87 | 63 | 1003.9 |
| 20260504020944 | 40 | 303 | 2.6 | 5.2 | 0.00 | 0.87 | 0.87 | 62 | 1004.0 |
| 20260504020041 | 40 | 326 | 3.5 | 5.2 | 0.00 | 0.87 | 0.87 | 63 | 1003.9 |
| 20260504014045 | 41 | 326 | 3.5 | 5.2 | 0.00 | 0.87 | 0.87 | 63 | 1003.7 |
| 20260504013043 | 41 | 302 | 4.3 | 7.8 | 0.00 | 0.87 | 0.87 | 63 | 1003.5 |
| 20260504012043 | 41 | 319 | 4.3 | 7.0 | 0.00 | 0.87 | 0.87 | 60 | 1003.4 |
| 20260504011043 | 42 | 325 | 2.6 | 3.5 | 0.00 | 0.87 | 0.87 | 57 | 1003.3 |
| 20260504010044 | 42 | 320 | 3.5 | 6.1 | 0.00 | 0.87 | 0.87 | 53 | 1003.2 |
| 20260504005043 | 42 | 330 | 3.5 | 6.1 | 0.00 | 0.87 | 0.87 | 46 | 1003.0 |
| 20260504004043 | 41 | 325 | 3.5 | 5.2 | 0.00 | 0.87 | 0.87 | 40 | 1002.8 |
| 20260504003043 | 42 | 317 | 0.9 | 1.7 | 0.00 | 0.87 | 0.87 | 41 | 1002.6 |
| 20260504002142 | 42 | 337 | 1.7 | 1.7 | 0.00 | 0.87 | 0.87 | 42 | 1002.6 |
| 20260504000044 | 42 | 341 | 2.6 | 4.3 | 0.00 | 0.87 | 0.87 | 42 | 1002.4 |
| 20260503235942 | 42 | 335 | 2.6 | 3.5 | 0.00 | 0.87 | 0.87 | 42 | 1002.5 |
| 20260503234943 | 42 | 329 | 2.6 | 2.6 | 0.00 | 0.87 | 0.87 | 41 | 1002.4 |
| 20260503233943 | 42 | 335 | 1.7 | 3.5 | 0.00 | 0.87 | 0.87 | 40 | 1002.2 |
| 20260503232943 | 42 | 337 | 1.7 | 2.6 | 0.00 | 0.87 | 0.87 | 40 | 1002.0 |
| 20260503231943 | 42 | 328 | 1.7 | 3.5 | 0.00 | 0.87 | 0.87 | 40 | 1001.9 |